[[{"header":{"parameterUnit":"m.s-1","parameterCategory":1,"la1":30.2991,"la2":30.254,"lo1":-89.0895,"lo2":-89.0444,"dy":0.0017,"dx":0.0017,"nx":28,"ny":28,"refTime":"2025-06-20T03:00:00:Z","depth":0,"parameterNumber":2,"parameterNumberName":"U-component_of_WINDS"},"data":[0,0,0,0,0,0,0,0,0,0,0,0,0,0,0,0,0,0,0,0,0,0,0,0,0,0,0,0,0,0,0,0,0,0,0,0,0,0,0,0,0,0,0,0,0,0,0,0,0,0,0,0,0,0,0,0,0,0,-0.7749,-0.7749,0,-0.7786,-0.7787,-0.7787,-0.7832,-0.7833,-0.7833,-0.7834,-0.7871,-0.7872,-0.7872,0,0,0,0,0,0,0,0,0,0,0,0,0,-0.7715,-0.7715,-0.7749,-0.7749,-0.775,-0.7786,-0.7787,-0.7787,-0.7832,-0.7833,-0.7834,-0.7834,-0.7871,-0.7872,-0.7872,0,0,0,0,0,0,0,0,0,0,0,0,0,-0.7739,-0.7715,-0.7749,-0.7776,-0.7779,-0.7786,-0.7787,-0.7788,-0.7832,-0.7833,-0.7834,-0.7835,-0.7871,-0.7872,-0.7872,-0.7855,0,0,-0.7874,-0.7874,0,0,0,0,0,0,0,0,-0.7737,-0.774,-0.7772,-0.7774,-0.7778,-0.7806,-0.7789,-0.781,-0.7831,-0.7812,-0.7834,-0.7835,-0.7849,-0.7851,-0.7856,-0.7856,-0.7858,-0.7874,-0.7874,-0.7874,-0.7874,0,0,0,0,0,0,0,-0.7735,-0.7738,-0.7764,-0.7772,-0.7776,-0.7787,-0.7791,-0.7793,-0.7824,-0.7814,-0.7817,-0.7821,-0.785,-0.7855,-0.7857,-0.7858,-0.7874,-0.7874,-0.7875,-0.7875,-0.7846,-0.7845,0,0,0,0,0,0,-0.773,-0.7737,-0.7762,-0.7765,-0.776,-0.7786,-0.7792,-0.7796,-0.7824,-0.7829,-0.782,-0.7823,-0.7854,-0.7856,-0.7858,-0.7838,-0.7874,-0.7875,-0.7875,-0.7847,-0.7845,-0.7844,0,0,0,0,0,0,-0.7729,-0.7732,-0.7761,-0.7752,-0.7756,-0.7786,-0.779,-0.7796,-0.7801,-0.7829,-0.7834,-0.7819,-0.7855,-0.7858,-0.7855,-0.784,-0.7875,-0.7875,-0.7848,-0.7846,-0.7845,-0.7799,0,0,0,0,0,0,-0.7728,-0.7731,-0.7725,-0.7751,-0.7757,-0.7757,-0.7789,-0.7796,-0.7801,-0.7806,-0.7829,-0.7834,-0.7856,-0.7854,-0.7856,-0.7842,-0.7876,-0.7849,-0.7847,-0.7845,-0.7802,-0.7796,-0.7791,0,0,0,0,0,-0.7726,-0.771,-0.7724,-0.7727,-0.7749,-0.7756,-0.7759,-0.7784,-0.78,-0.7794,-0.7812,-0.7834,-0.7842,-0.7853,-0.7856,-0.7842,-0.785,-0.7848,-0.7846,-0.7804,-0.7797,-0.7791,0,0,0,0,0,0,-0.7681,-0.7714,-0.773,-0.7722,-0.7736,-0.7764,-0.7756,-0.7776,-0.7785,-0.7788,-0.7819,-0.7824,-0.7817,-0.783,-0.7842,-0.7826,-0.785,-0.7847,-0.7817,-0.7811,-0.7806,-0.7801,-0.7876,0,0,0,0,0,-0.767,-0.7673,-0.7702,-0.7692,-0.7698,-0.7726,-0.773,-0.7748,-0.7764,-0.777,-0.7788,-0.7801,-0.7807,-0.781,-0.7817,-0.7805,-0.781,-0.7796,-0.7791,-0.7786,-0.7783,-0.7776,-0.777,-0.7836,-0.7836,-0.7836,0,0,-0.7647,-0.7666,-0.7666,-0.7683,-0.7696,-0.7698,-0.7731,-0.7731,-0.7733,-0.777,-0.7768,-0.7782,-0.7799,-0.7791,-0.7789,-0.7801,-0.7767,-0.7783,-0.7779,-0.7779,-0.7773,-0.7767,-0.7761,-0.7835,-0.7835,-0.7835,0,0,-0.7606,-0.7621,-0.7614,-0.7627,-0.7646,-0.7664,-0.7663,-0.7688,-0.7698,-0.7697,-0.7725,-0.7727,-0.7737,-0.7748,-0.7755,-0.7719,-0.7738,-0.772,-0.769,-0.7683,-0.7678,-0.7674,-0.7659,-0.7653,-0.7718,-0.7718,-0.7718,0,-0.7575,-0.7579,-0.7608,-0.7606,-0.7613,-0.7648,-0.764,-0.7651,-0.7671,-0.7675,-0.7689,-0.7702,-0.7716,-0.771,-0.7701,-0.7707,-0.7705,-0.7716,-0.7677,-0.7672,-0.7669,-0.7655,-0.7649,-0.7715,-0.7715,-0.7716,-0.7716,0,-0.7539,-0.7541,-0.7533,-0.7552,-0.7558,-0.7554,-0.7582,-0.7584,-0.7603,-0.762,-0.7618,-0.7637,-0.7647,-0.7648,-0.7666,-0.7645,-0.7652,-0.7671,-0.7695,-0.7659,-0.7647,-0.7642,-0.7711,-0.7712,-0.7713,-0.7714,0,0,-0.7468,-0.7504,-0.75,-0.7508,-0.7533,-0.7535,-0.7532,-0.7543,-0.7544,-0.7558,-0.7555,-0.7563,-0.7581,-0.7589,-0.7609,-0.7603,-0.7571,-0.7623,-0.7623,-0.761,-0.7547,-0.753,-0.7523,-0.7585,-0.7584,-0.7584,-0.7544,0,-0.7429,-0.7426,-0.7452,-0.7442,-0.7444,-0.7478,-0.7475,-0.7489,-0.7506,-0.751,-0.7528,-0.7532,-0.7557,-0.7561,-0.7557,-0.7575,-0.7558,-0.7579,-0.7581,-0.7581,-0.7573,-0.7517,-0.7499,-0.7461,-0.754,-0.7539,-0.7538,0,-0.7383,-0.7394,-0.7383,-0.7408,-0.741,-0.7407,-0.7419,-0.7423,-0.744,-0.7452,-0.7461,-0.7484,-0.7482,-0.7507,-0.7505,-0.7519,-0.7522,-0.7531,-0.753,-0.7529,-0.7555,-0.7512,-0.745,-0.7443,-0.7531,-0.7532,-0.7532,0,-0.7329,-0.7342,-0.7337,-0.7343,-0.7372,-0.7369,-0.7381,-0.74,-0.7404,-0.7415,-0.7419,-0.7429,-0.7434,-0.7442,-0.7467,-0.7483,-0.7461,-0.7488,-0.7469,-0.7469,-0.7461,-0.746,-0.7396,-0.7467,-0.7467,-0.7468,-0.7468,0,-0.7282,-0.7273,-0.7313,-0.7309,-0.7301,-0.7332,-0.7323,-0.7338,-0.7354,-0.7354,-0.7385,-0.7384,-0.7418,-0.7421,-0.7441,-0.7435,-0.7438,-0.7447,-0.7451,-0.7442,-0.7441,-0.7442,-0.7444,-0.7466,-0.7466,-0.7467,-0.7467,0,-0.7219,-0.7245,-0.7241,-0.727,-0.7277,-0.7269,-0.7293,-0.7291,-0.731,-0.7309,-0.7311,-0.734,-0.7345,-0.7372,-0.7383,-0.7396,-0.7382,-0.7394,-0.7376,-0.7379,-0.7357,-0.7358,-0.7289,-0.7281,-0.736,-0.736,-0.7359,0,-0.7185,-0.7179,-0.7207,-0.7209,-0.722,-0.7223,-0.7228,-0.7259,-0.7263,-0.7283,-0.7278,-0.7286,-0.7293,-0.7299,-0.7321,-0.733,-0.734,-0.7316,-0.7341,-0.7332,-0.7337,-0.7335,-0.7334,-0.7309,-0.7308,-0.7307,-0.7306,0,-0.7122,-0.7135,-0.7142,-0.7152,-0.7158,-0.7168,-0.718,-0.718,-0.7214,-0.7217,-0.7223,-0.7228,-0.724,-0.7246,-0.7259,-0.7271,-0.7293,-0.7299,-0.7294,-0.7283,-0.7272,-0.7275,-0.7358,-0.7299,-0.73,-0.7301,-0.7301,-0.7301,-0.7071,-0.7067,-0.7085,-0.7091,-0.7104,-0.7114,-0.7113,-0.7132,-0.7138,-0.7149,-0.7168,-0.717,-0.7188,-0.7207,-0.7218,-0.722,-0.7233,-0.7227,-0.7225,-0.7222,-0.7217,-0.7274,-0.7223,-0.7223,-0.7223,-0.7223,-0.7223,0,-0.7007,-0.7021,-0.7026,-0.7042,-0.7046,-0.7069,-0.7083,-0.7085,-0.7087,-0.7102,-0.7109,-0.7115,-0.7122,-0.7145,-0.7154,-0.7151,-0.7161,-0.7152,-0.7151,-0.7153,-0.7206,-0.7207,-0.7143,-0.7143,-0.7143,-0.7143,-0.7143,-0.7143,-0.6974,-0.6968,-0.6983,-0.6984,-0.6998,-0.7001,-0.7007,-0.7016,-0.7028,-0.7034,-0.7039,-0.7055,-0.7073,-0.7083,-0.709,-0.7097,-0.7098,-0.7084,-0.7094,-0.7142,-0.7149,-0.7157,-0.7158,-0.7085,-0.7085,-0.7041,-0.704,-0.704]},{"header":{"parameterUnit":"m.s-1","parameterCategory":1,"la1":30.2991,"la2":30.254,"lo1":-89.0895,"lo2":-89.0444,"dy":0.0017,"dx":0.0017,"nx":28,"ny":28,"refTime":"2025-06-20T03:00:00:Z","depth":0,"parameterNumber":3,"parameterNumberName":"V-component_of_WINDS"},"data":[0,0,0,0,0,0,0,0,0,0,0,0,0,0,0,0,0,0,0,0,0,0,0,0,0,0,0,0,0,0,0,0,0,0,0,0,0,0,0,0,0,0,0,0,0,0,0,0,0,0,0,0,0,0,0,0,0,0,0.9891,0.989,0,0.9794,0.9793,0.9792,0.9716,0.9715,0.9715,0.9714,0.961,0.9608,0.9606,0,0,0,0,0,0,0,0,0,0,0,0,0,1.0006,1.0004,0.9892,0.989,0.9889,0.9795,0.9793,0.9792,0.9716,0.9715,0.9715,0.9714,0.9611,0.9608,0.9606,0,0,0,0,0,0,0,0,0,0,0,0,0,0.9937,1.0004,0.9892,0.984,0.9835,0.9795,0.9793,0.9792,0.9716,0.9715,0.9714,0.9713,0.9611,0.9608,0.9605,0.9608,0,0,0.9596,0.9594,0,0,0,0,0,0,0,0,0.9941,0.9933,0.9849,0.9844,0.9837,0.9766,0.9795,0.973,0.9717,0.9761,0.9714,0.9713,0.9663,0.9655,0.9639,0.9603,0.9598,0.9595,0.9593,0.9592,0.9591,0,0,0,0,0,0,0,0.9946,0.9937,0.9853,0.9848,0.9841,0.982,0.9809,0.9783,0.9719,0.9757,0.9751,0.9741,0.9659,0.9642,0.9636,0.9597,0.9595,0.9593,0.9591,0.9589,0.9555,0.9556,0,0,0,0,0,0,0.996,0.9941,0.9856,0.985,0.9888,0.9819,0.9807,0.979,0.9719,0.9707,0.9742,0.9738,0.9648,0.964,0.9632,0.9629,0.9592,0.9589,0.9587,0.9554,0.9555,0.9556,0,0,0,0,0,0,0.9962,0.9953,0.986,0.9894,0.9881,0.9818,0.98,0.9789,0.9772,0.9708,0.9696,0.9737,0.9647,0.9637,0.9614,0.9624,0.9588,0.9585,0.9553,0.9555,0.9556,0.9624,0,0,0,0,0,0,0.9966,0.9954,0.9956,0.9895,0.9879,0.9846,0.9801,0.9788,0.9767,0.9761,0.97,0.9689,0.9645,0.9619,0.9611,0.9619,0.9582,0.9552,0.9554,0.9555,0.962,0.9627,0.9634,0,0,0,0,0,0.997,0.9978,0.9956,0.9947,0.988,0.9846,0.9837,0.9789,0.9769,0.9769,0.9727,0.9691,0.9625,0.9618,0.9608,0.9615,0.9551,0.9553,0.9555,0.9617,0.9626,0.9633,0,0,0,0,0,0,1.0041,0.9969,0.9944,0.9933,0.9897,0.9834,0.9833,0.98,0.9767,0.9762,0.9701,0.9688,0.9672,0.9641,0.9635,0.9613,0.9583,0.9583,0.9634,0.9641,0.9648,0.9655,0.958,0,0,0,0,0,1.0056,1.0036,0.9973,0.9969,0.9952,0.9896,0.9879,0.9845,0.9804,0.9788,0.9745,0.9705,0.9675,0.9656,0.9625,0.9616,0.96,0.9616,0.9622,0.9628,0.9629,0.9619,0.9625,0.9564,0.9564,0.9563,0,0,1.0085,1.0043,1.0034,0.9983,0.995,0.9929,0.9883,0.9863,0.9846,0.9784,0.976,0.9727,0.9679,0.9662,0.9653,0.9636,0.9642,0.9631,0.9636,0.9633,0.9622,0.9628,0.9633,0.9565,0.9565,0.9565,0,0,1.0127,1.0095,1.0087,1.0056,1.0008,0.997,0.9968,0.991,0.9886,0.9862,0.9814,0.9792,0.9742,0.9709,0.9686,0.9715,0.9679,0.9706,0.974,0.9732,0.9736,0.974,0.9749,0.9753,0.9707,0.9707,0.9707,0,1.017,1.0138,1.0087,1.007,1.0048,0.9991,0.9982,0.9953,0.9897,0.9882,0.9865,0.98,0.9764,0.9738,0.9745,0.9728,0.9723,0.9713,0.974,0.9744,0.9747,0.9754,0.9758,0.9711,0.971,0.971,0.971,0,1.0191,1.0169,1.0169,1.0117,1.0095,1.0082,1.0027,1.001,0.9978,0.9941,0.9916,0.987,0.9828,0.9819,0.9787,0.9788,0.9779,0.9752,0.9721,0.9757,0.9763,0.9766,0.9716,0.9715,0.9714,0.9713,0,0,1.0276,1.0196,1.0197,1.0172,1.0114,1.0095,1.0079,1.0039,1.0025,0.9988,0.9971,0.9929,0.9903,0.9877,0.984,0.9833,0.9857,0.9806,0.9804,0.9816,0.9854,0.9874,0.9879,0.9833,0.9833,0.9834,0.9857,0,1.0309,1.0277,1.0231,1.0214,1.0192,1.0138,1.0123,1.0085,1.005,1.0025,0.9985,0.9956,0.9925,0.9908,0.9899,0.9856,0.9863,0.9854,0.9815,0.9814,0.9828,0.9882,0.9904,0.9928,0.986,0.986,0.986,0,1.0343,1.031,1.0291,1.0234,1.0223,1.0211,1.017,1.0147,1.0102,1.0076,1.0047,1.0007,0.9984,0.9957,0.9923,0.9918,0.9899,0.9875,0.9875,0.9868,0.9839,0.9876,0.9935,0.9939,0.9864,0.9863,0.9863,0,1.0405,1.0356,1.0338,1.0318,1.0252,1.0244,1.0215,1.0169,1.0148,1.0111,1.0096,1.0057,1.0036,1.0005,0.9955,0.994,0.9926,0.9895,0.9903,0.9905,0.9902,0.9903,0.9958,0.9892,0.9892,0.9892,0.9892,0,1.0446,1.0437,1.0365,1.0354,1.0341,1.0286,1.0274,1.024,1.02,1.0179,1.013,1.0111,1.0046,1.002,0.998,0.9958,0.9948,0.9926,0.9915,0.993,0.9933,0.9916,0.9913,0.9893,0.9893,0.9892,0.9892,0,1.0514,1.0466,1.0442,1.0381,1.0365,1.0358,1.0304,1.029,1.0252,1.0227,1.0218,1.0158,1.0124,1.0071,1.0021,0.9994,0.9978,0.9961,0.9994,0.9987,0.9998,0.9997,1.0044,1.0046,0.998,0.9981,0.9981,0,1.0543,1.0535,1.0472,1.0456,1.043,1.0404,1.0382,1.0327,1.0306,1.0253,1.0245,1.0207,1.0175,1.0122,1.0073,1.0034,1.0015,1.0034,1.0008,1.0023,1.0013,1.0014,1.0012,1.0039,1.004,1.0041,1.0042,0,1.0599,1.0576,1.0547,1.0509,1.0485,1.0452,1.0417,1.0406,1.0343,1.0321,1.0287,1.0261,1.021,1.0173,1.0127,1.0095,1.0057,1.005,1.005,1.0064,1.0083,1.0072,1.0009,1.0049,1.0049,1.0048,1.0048,1.0047,1.0648,1.0637,1.0591,1.056,1.0528,1.0496,1.048,1.044,1.0411,1.0366,1.0335,1.0302,1.0254,1.0189,1.0159,1.0131,1.0114,1.0114,1.0114,1.0115,1.0119,1.0089,1.0122,1.0122,1.0122,1.0121,1.0121,0,1.07,1.0668,1.0641,1.0593,1.0568,1.0537,1.0495,1.0476,1.0448,1.0408,1.0377,1.0336,1.0299,1.0247,1.0205,1.0193,1.0174,1.0183,1.0183,1.0176,1.0137,1.0141,1.0199,1.0199,1.0199,1.0199,1.0199,1.0199,1.0725,1.0705,1.0676,1.0638,1.0605,1.0574,1.0553,1.0522,1.049,1.0447,1.0417,1.0383,1.0337,1.0292,1.0256,1.0241,1.0228,1.0242,1.0222,1.0186,1.0179,1.0172,1.0176,1.024,1.024,1.0263,1.0263,1.0264]}]]